When you browse on this site, cookies collect data to enhance your experience and personalize the content and advertising you see.
Visit our Privacy Policy to learn more. By continuing to use the site, you agree to this use of cookies and data.
  • In Czech Republic
  • List of Countries
  • For 7 days
  • Water Temperature
  • Satellite Maps
  • Weather Map
  • Weather Widgets
  • user-avatar
    Login

    Hourly Weather Wuhan

    Today, 19 June, Wednesday

    Time Temperature Precipitation Wind Pressure Humidity
    00:00 +25°C° 0.3 mm 1 mps 752 mmHg 90%
    01:00 +25°C° 0.3 mm 1 mps 751 mmHg 91%
    02:00 +25°C° 0 mm 1 mps 751 mmHg 92%
    03:00 +25°C° 0.2 mm 1 mps 751 mmHg 93%
    04:00 +25°C° 0.2 mm 1 mps 751 mmHg 93%
    05:00 +25°C° 0.2 mm 1 mps 751 mmHg 94%
    06:00 +26°C° 0.2 mm 1 mps 751 mmHg 91%
    07:00 +26°C° 0.2 mm 2 mps 751 mmHg 88%
    08:00 +27°C° 0 mm 2 mps 752 mmHg 86%
    09:00 +28°C° 0.3 mm 2 mps 752 mmHg 82%
    10:00 +29°C° 0.3 mm 2 mps 752 mmHg 78%
    11:00 +31°C° 0.3 mm 2 mps 752 mmHg 75%
    12:00 +31°C° 0.3 mm 2 mps 751 mmHg 73%
    13:00 +32°C° 0.3 mm 2 mps 750 mmHg 71%
    14:00 +32°C° 0 mm 2 mps 750 mmHg 73%
    15:00 +32°C° 0 mm 2 mps 750 mmHg 71%
    16:00 +34°C° 0 mm 2 mps 749 mmHg 70%
    17:00 +34°C° 0 mm 2 mps 749 mmHg 68%
    18:00 +32°C° 0 mm 2 mps 749 mmHg 72%
    19:00 +31°C° 0 mm 3 mps 749 mmHg 77%
    20:00 +30°C° 0 mm 3 mps 749 mmHg 82%
    21:00 +29°C° 0.2 mm 3 mps 749 mmHg 83%
    22:00 +29°C° 0.2 mm 3 mps 750 mmHg 84%
    23:00 +29°C° 0.2 mm 3 mps 750 mmHg 85%

    Tomorrow, 20 June, Thursday

    Time Temperature Precipitation Wind Pressure Humidity
    00:00 +28°C° 0.1 mm 3 mps 750 mmHg 86%
    01:00 +28°C° 0.1 mm 3 mps 749 mmHg 87%
    02:00 +28°C° 0.1 mm 3 mps 749 mmHg 89%
    03:00 +27°C° 0.3 mm 3 mps 748 mmHg 89%
    04:00 +27°C° 0.3 mm 3 mps 748 mmHg 90%
    05:00 +27°C° 0.3 mm 3 mps 748 mmHg 91%
    06:00 +27°C° 1.8 mm 3 mps 748 mmHg 90%
    07:00 +28°C° 1.8 mm 3 mps 748 mmHg 89%
    08:00 +28°C° 1.8 mm 3 mps 748 mmHg 88%
    09:00 +30°C° 0.5 mm 3 mps 748 mmHg 82%
    10:00 +32°C° 0.5 mm 4 mps 748 mmHg 77%
    11:00 +34°C° 0.5 mm 4 mps 748 mmHg 71%
    12:00 +34°C° 1.5 mm 4 mps 748 mmHg 70%
    13:00 +35°C° 1.5 mm 4 mps 747 mmHg 69%
    14:00 +35°C° 1.5 mm 4 mps 747 mmHg 68%
    15:00 +35°C° 0.9 mm 4 mps 746 mmHg 68%
    16:00 +36°C° 0.9 mm 4 mps 746 mmHg 68%
    17:00 +36°C° 0.9 mm 3 mps 746 mmHg 68%
    18:00 +35°C° 2 mm 3 mps 746 mmHg 71%
    19:00 +34°C° 2 mm 3 mps 746 mmHg 75%
    20:00 +33°C° 2 mm 3 mps 747 mmHg 78%
    21:00 +31°C° 1.9 mm 3 mps 747 mmHg 80%
    22:00 +31°C° 1.9 mm 3 mps 747 mmHg 82%
    23:00 +30°C° 1.9 mm 3 mps 748 mmHg 83%

    Day after tomorrow, 21 June, Friday

    Time Temperature Precipitation Wind Pressure Humidity
    00:00 +29°C° 2.2 mm 3 mps 748 mmHg 86%
    01:00 +29°C° 2.2 mm 2 mps 747 mmHg 88%
    02:00 +28°C° 2.2 mm 2 mps 747 mmHg 91%
    03:00 +28°C° 4.1 mm 2 mps 747 mmHg 92%
    04:00 +28°C° 4.1 mm 2 mps 747 mmHg 93%
    05:00 +28°C° 4.1 mm 2 mps 747 mmHg 95%
    06:00 +27°C° 1.8 mm 3 mps 747 mmHg 94%
    07:00 +27°C° 1.8 mm 4 mps 748 mmHg 93%
    08:00 +27°C° 1.8 mm 5 mps 748 mmHg 92%
    09:00 +27°C° 0.2 mm 5 mps 748 mmHg 90%
    10:00 +27°C° 0.2 mm 5 mps 749 mmHg 87%
    11:00 +28°C° 0.2 mm 5 mps 749 mmHg 84%
    12:00 +28°C° 0 mm 5 mps 749 mmHg 81%
    13:00 +29°C° 0 mm 5 mps 749 mmHg 78%
    14:00 +30°C° 0 mm 5 mps 749 mmHg 75%
    15:00 +30°C° 0.1 mm 5 mps 749 mmHg 77%
    16:00 +29°C° 0.1 mm 5 mps 748 mmHg 79%
    17:00 +28°C° 0.1 mm 5 mps 748 mmHg 80%
    18:00 +28°C° 0.1 mm 4 mps 749 mmHg 81%
    19:00 +28°C° 0.1 mm 3 mps 749 mmHg 82%
    20:00 +27°C° 0.1 mm 2 mps 750 mmHg 82%
    21:00 +27°C° 0 mm 2 mps 750 mmHg 83%
    22:00 +27°C° 0 mm 2 mps 750 mmHg 84%
    23:00 +26°C° 0 mm 2 mps 751 mmHg 85%

    22 June, Saturday

    Time Temperature Precipitation Wind Pressure Humidity
    00:00 +26°C° 0.1 mm 2 mps 750 mmHg 86%
    01:00 +26°C° 0.1 mm 2 mps 750 mmHg 87%
    02:00 +26°C° 0.1 mm 1 mps 750 mmHg 88%
    03:00 +26°C° 0.1 mm 1 mps 750 mmHg 85%
    04:00 +26°C° 0.1 mm 1 mps 750 mmHg 83%
    05:00 +26°C° 0.1 mm 2 mps 750 mmHg 81%
    06:00 +25°C° 0 mm 2 mps 750 mmHg 79%
    07:00 +25°C° 0 mm 2 mps 751 mmHg 76%
    08:00 +25°C° 0 mm 2 mps 751 mmHg 74%
    09:00 +25°C° 0.7 mm 2 mps 751 mmHg 75%
    10:00 +25°C° 0.7 mm 2 mps 752 mmHg 76%
    11:00 +25°C° 0.7 mm 2 mps 752 mmHg 77%
    12:00 +25°C° 0 mm 2 mps 752 mmHg 76%
    13:00 +25°C° 0 mm 2 mps 751 mmHg 75%
    14:00 +26°C° 0 mm 2 mps 751 mmHg 74%
    15:00 +26°C° 0 mm 2 mps 751 mmHg 75%
    16:00 +26°C° 0 mm 2 mps 751 mmHg 75%
    17:00 +26°C° 0 mm 2 mps 751 mmHg 75%
    18:00 +26°C° 0 mm 2 mps 751 mmHg 75%
    19:00 +25°C° 0 mm 1 mps 751 mmHg 75%
    20:00 +25°C° 0 mm 1 mps 751 mmHg 75%
    21:00 +25°C° 0 mm 1 mps 752 mmHg 75%
    22:00 +25°C° 0 mm 1 mps 752 mmHg 75%
    23:00 +25°C° 0 mm 1 mps 752 mmHg 75%

    23 June, Sunday

    Time Temperature Precipitation Wind Pressure Humidity
    00:00 +25°C° 0 mm 1 mps 752 mmHg 76%
    01:00 +24°C° 0 mm 1 mps 752 mmHg 78%
    02:00 +24°C° 0 mm 1 mps 752 mmHg 80%
    03:00 +24°C° 0 mm 1 mps 751 mmHg 81%
    04:00 +23°C° 0 mm 1 mps 751 mmHg 83%
    05:00 +23°C° 0 mm 1 mps 751 mmHg 84%
    06:00 +24°C° 0 mm 1 mps 752 mmHg 81%
    07:00 +25°C° 0 mm 1 mps 752 mmHg 78%
    08:00 +26°C° 0 mm 2 mps 752 mmHg 76%
    09:00 +29°C° 0 mm 2 mps 751 mmHg 64%
    10:00 +30°C° 0 mm 2 mps 751 mmHg 61%
    11:00 +31°C° 0 mm 2 mps 751 mmHg 59%
    12:00 +31°C° 0 mm 2 mps 750 mmHg 55%
    13:00 +32°C° 0 mm 2 mps 750 mmHg 52%
    14:00 +34°C° 0 mm 2 mps 750 mmHg 49%
    15:00 +34°C° 0 mm 2 mps 749 mmHg 48%
    16:00 +34°C° 0 mm 2 mps 749 mmHg 48%
    17:00 +34°C° 0 mm 2 mps 749 mmHg 47%
    18:00 +32°C° 0 mm 2 mps 749 mmHg 53%
    19:00 +30°C° 0 mm 2 mps 749 mmHg 59%
    20:00 +29°C° 0 mm 3 mps 749 mmHg 65%
    21:00 +29°C° 0 mm 2 mps 750 mmHg 65%
    22:00 +28°C° 0 mm 2 mps 750 mmHg 65%
    23:00 +28°C° 0 mm 2 mps 750 mmHg 65%

    24 June, Monday

    Time Temperature Precipitation Wind Pressure Humidity
    00:00 +28°C° 0 mm 2 mps 750 mmHg 66%
    01:00 +27°C° 0 mm 2 mps 750 mmHg 66%
    02:00 +27°C° 0 mm 2 mps 750 mmHg 67%
    03:00 +27°C° 0 mm 2 mps 750 mmHg 68%
    04:00 +26°C° 0 mm 2 mps 749 mmHg 70%
    05:00 +26°C° 0 mm 2 mps 749 mmHg 71%
    06:00 +27°C° 0 mm 2 mps 750 mmHg 69%
    07:00 +27°C° 0 mm 2 mps 750 mmHg 68%
    08:00 +28°C° 0 mm 2 mps 750 mmHg 66%
    09:00 +29°C° 0 mm 2 mps 750 mmHg 63%
    10:00 +30°C° 0 mm 2 mps 750 mmHg 59%
    11:00 +31°C° 0 mm 2 mps 750 mmHg 56%
    12:00 +33°C° 0 mm 3 mps 750 mmHg 57%
    13:00 +33°C° 0 mm 3 mps 750 mmHg 58%
    14:00 +33°C° 0 mm 4 mps 750 mmHg 59%
    15:00 +32°C° 0 mm 4 mps 749 mmHg 61%
    16:00 +31°C° 0 mm 3 mps 749 mmHg 64%
    17:00 +30°C° 0 mm 3 mps 749 mmHg 66%
    18:00 +30°C° 0 mm 3 mps 749 mmHg 68%
    19:00 +29°C° 0 mm 3 mps 750 mmHg 71%
    20:00 +28°C° 0 mm 4 mps 750 mmHg 73%
    21:00 +28°C° 0 mm 3 mps 750 mmHg 74%
    22:00 +27°C° 0 mm 3 mps 750 mmHg 76%
    23:00 +27°C° 0 mm 3 mps 750 mmHg 77%
    Show more